CZ-6A DEB, 61475

Orbit data source: Space-Track

CZ-6A DEB, 61475 is space debris in LEO originally from a launch on Tue, 06 Aug 2024 UTC launched from the Taiyaun Space Center, China (TSC). Debris objects in space refer to the collection of defunct objects orbiting the Earth. Examples of debris include non-operational satellites, rocket bodies, and fragments generated from explosions, collisions, or faulty payload assembly.

Loading next visibility...
Identifier
61475, 2024-140AAH
Orbit
LEO
Country
Flag of CNCN / PRC
Related business
Manufacturer
SAST
Mission
Spacecraft
Bus & Motor
Unknown
Mass
Unknown
Launch date (UTC)
2024-08-06 (2 years ago)
Launch vehicle
Unknown
Launch site
Taiyaun Space Center, China (TSC)
Object type
Payload
Rocket body
Debris
Shape & HBR
Unknown shape, 0.1 m
Radar Cross Section
Small (<0.1 m²)

Expand to show TLE details & history
Last TLE update: 9 hours ago

TLE from 9 hours ago
0 CZ-6A DEB
1 61475U 24140AAH 26171.46220997  .00000037  00000-0  20914-4 0  9990
2 61475  88.3846 240.8107 0437324  81.4156 283.6273 13.38851772 87520
Epoch: 2026-06-20T11:05Z
TLE epoch observation values (Epoch: 2026-06-20T11:05:34.941Z)
Latitude
-0.00003°
Longitude
165.73862°
Altitude
1,053.022 km
Speed
7.356 km/s
True Right ascension
16h 03m 14s
True Declination
0° 00' 00"
Sunlit
Object was in full shadow at epoch
Visualization orbit readout
Latitude
Unknown
Longitude
Unknown
Altitude
Unknown
Speed
Unknown
Apparent Right ascension
Unknown
Apparent Declination
Unknown
Sunlit
N/A
Visualization observer readout
Local Sidereal Time
07:20:44
Azimuth
Unknown
Elevation
Unknown
Doppler factor
Unknown
Orbital elements
Apogee altitude
1,438.126 km
Perigee altitude
783.123 km
Semi-major axis
7,488.761 km
Eccentricity
0.04373
Inclination
88.3846°
RAAN
240.8107°
Arg. of periapsis
81.4156°
True anomaly
278.69959°
Mean anomaly
283.6273°
Eccentric anomaly
281.16908°
Mean motion
3.3491 °/min
Orbital period
107.49 mins
BSTAR
0.000020914
Loading maneuver chart data...
Computing Atmospheric mass density...
Loading historical data...
Loading historical data...
Loading historical data...
Loading historical data...
Loading historical data...
Loading historical data...
Loading historical data...

Documentation

Showing up to 5 results
|